SCP
0 0 0 0 0 0 0 0 0 0 0 0 0 0 0 0 0 0 0 0 0 0 0 0 1 0 0 0 0 1 1 1 1 1 1 1 2 1
0 0 0 0 0 0 0 0 0 0 0 0 0 0 0 0 0 0 0 0 0 0 0 1 1 1 0 0 0 0 1 1 1 1 1 1 2 2
0 0 0 0 0 0 0 0 0 0 0 0 0 0 0 0 0 0 0 0 0 0 0 1 1 1 0 0 0 0 0 1 1 1 1 1 2 2
0 0 0 0 0 0 0 0 0 0 0 0 0 0 0 0 0 0 0 0 0 0 0 0 0 0 0 0 0 0 0 0 0 1 1 1 1 1
0 0 0 0 0 0 0 0 0 0 0 0 0 0 0 0 0 0 0 0 0 0 0 0 0 0 0 0 0 0 0 0 0 0 1 1 1 1
0 0 0 0 0 0 0 0 0 0 0 0 0 0 0 0 0 0 0 0 0 0 0 0 0 0 0 0 0 0 0 0 0 0 0 1 1 1
0 0 0 0 0 0 0 0 0 0 0 0 0 0 0 0 0 0 0 0 0 0 0 0 0 0 0 0 0 0 0 0 0 0 0 0 0 0
0 0 0 0 0 0 0 0 0 0 0 0 0 0 0 0 0 0 0 0 0 0 0 0 0 0 0 0 0 0 0 0 0 0 0 0 0 0
0 0 0 0 0 0 0 0 0 0 0 0 0 0 0 0 0 0 0 0 0 0 0 0 0 0 0 0 0 0 0 0 0 0 0 0 0 0
0 0 0 0 0 0 0 0 0 0 0 0 0 0 0 0 0 0 0 0 0 0 0 0 0 0 0 0 0 0 0 0 0 0 0 0 0 0
0 0 0 0 0 0 0 0 0 0 0 0 0 0 0 0 0 0 0 0 0 0 0 0 0 0 0 0 0 0 0 0 0 0 0 0 0 0
0 0 0 0 0 0 0 0 0 0 0 0 0 0 0 0 0 0 0 0 0 0 0 0 0 0 0 0 0 0 0 0 0 0 0 0 0 0
0 0 0 0 0 0 0 0 0 0 0 0 0 0 0 0 0 0 0 0 0 0 0 0 0 0 0 0 0 0 0 0 0 0 0 0 0 0
0 0 0 0 0 0 0 0 0 0 0 0 0 0 0 0 0 0 0 0 0 0 0 0 0 0 0 0 0 0 0 0 0 0 0 0 0 0
0 0 0 0 0 0 0 0 0 0 0 0 0 0 0 0 0 0 0 0 0 0 0 0 0 0 0 0 0 0 0 0 0 0 0 0 0 0
0 0 0 0 0 0 0 0 0 0 0 0 0 0 0 0 0 0 0 0 0 0 0 0 0 0 0 0 0 0 0 0 0 0 0 0 0 0
0 0 0 0 0 0 0 0 0 0 0 0 0 0 0 0 0 0 0 0 0 0 0 0 0 0 0 0 0 0 0 0 0 0 0 0 0 0
0 0 0 0 0 0 0 0 0 0 0 0 0 0 0 0 0 0 0 0 0 0 0 0 0 0 0 0 0 0 0 0 0 0 0 0 0 0
0 0 0 0 0 0 0 0 0 0 0 0 0 0 0 0 0 0 0 0 0 0 0 0 0 0 0 0 0 0 0 0 0 0 0 0 0 0
0 0 0 0 0 0 0 0 0 0 0 0 0 0 0 0 0 0 0 0 0 0 0 0 0 0 0 0 0 0 0 0 0 0 0 0 0 0
0 0 0 0 0 0 0 0 0 0 0 0 0 0 0 0 0 0 0 0 0 0 0 0 0 0 0 0 0 0 0 0 0 0 0 0 0 0
0 0 0 0 0 0 0 0 0 0 0 0 0 0 0 0 0 0 0 0 0 0 0 0 0 0 0 0 0 0 0 0 0 0 0 0 0 0
0 0 0 0 0 0 0 0 0 0 0 0 0 0 0 0 0 0 0 0 0 0 0 0 0 0 0 0 0 0 0 0 0 0 0 0 0 0
Wind_Speed
7 7 7 6 6 7 7 7 8 8 8 7 5 5 4 5 4 7 8 4 8 11 11 11 10 8 8 10 13 16 17 17 16 19 25 29 28 27
5 7 7 6 6 6 7 8 9 9 9 7 6 5 5 5 4 7 7 5 8 8 10 10 10 9 9 10 11 13 16 17 17 19 25 29 30 29
7 7 8 8 6 6 7 8 9 9 10 9 6 5 7 7 5 5 6 7 6 4 8 11 11 10 11 11 11 13 15 17 18 19 23 26 30 30
6 6 7 6 8 7 7 9 9 9 10 11 8 5 7 6 6 6 5 5 7 6 7 10 10 10 10 11 11 12 13 15 18 19 22 24 27 28
4 4 5 5 6 6 7 7 6 6 7 8 8 4 4 5 6 6 7 6 7 7 8 9 10 10 11 12 12 12 12 13 17 19 21 22 24 26
8 9 9 9 7 5 2 2 2 4 5 5 5 4 3 4 6 7 7 6 7 8 9 10 11 11 13 13 13 12 12 12 15 18 19 20 21 23
8 8 9 10 12 9 6 5 4 2 1 1 1 2 3 4 5 6 8 8 9 8 7 7 8 8 8 8 8 10 12 12 14 17 19 19 20 22
6 6 6 8 10 12 12 11 8 5 3 1 1 3 4 5 5 6 7 8 8 6 9 9 9 9 9 9 9 11 14 14 14 17 19 20 22 23
5 5 4 4 6 5 7 6 5 6 6 4 4 4 5 6 7 8 8 9 10 9 10 12 10 11 10 10 11 13 15 15 13 16 20 20 23 25
5 6 6 6 7 8 6 5 4 4 6 6 6 6 6 8 9 10 11 11 11 9 10 11 11 11 10 10 11 12 14 16 14 15 18 18 19 23
4 6 6 6 9 11 8 6 6 5 3 6 9 9 10 10 9 8 8 8 9 8 8 9 10 11 11 11 12 13 14 16 15 16 16 17 17 18
3 4 6 9 11 11 8 6 6 7 7 8 8 7 6 6 7 7 7 7 8 7 6 8 9 9 8 8 8 8 9 11 13 15 15 15 15 10
3 3 5 10 11 10 8 6 8 9 8 8 7 6 5 5 5 6 6 6 7 8 8 9 9 9 9 10 11 11 10 9 8 8 10 13 14 11
3 3 5 9 9 8 6 9 10 8 5 6 6 6 6 6 7 8 9 9 9 11 12 11 10 10 11 12 11 10 10 10 9 8 7 8 11 14
3 5 7 8 8 5 6 8 7 5 5 5 5 6 6 8 8 8 9 9 11 11 11 12 11 10 11 12 12 12 12 11 10 10 9 8 8 7
2 2 5 5 5 5 5 5 4 4 6 5 6 6 7 7 7 7 8 8 9 9 9 11 12 12 11 12 11 12 11 10 8 9 10 9 8 8
2 3 4 4 4 4 4 4 4 5 5 5 6 6 7 7 7 7 7 8 9 11 11 9 9 10 12 12 11 11 12 12 12 11 11 11 10 8
2 4 4 4 5 5 5 5 5 5 5 6 7 7 7 8 8 8 8 8 9 10 11 11 10 10 10 10 13 14 12 12 12 13 13 12 12 8
3 4 4 5 5 5 5 5 6 6 6 7 7 7 7 8 8 9 9 9 9 10 11 11 11 10 12 12 9 10 11 11 11 12 12 12 12 10
4 5 5 5 5 5 6 6 6 7 6 7 8 8 8 8 9 10 10 11 11 11 12 11 11 11 12 13 13 13 14 14 12 12 12 11 9 6
5 5 5 6 6 6 6 7 7 7 8 8 8 9 9 9 9 10 11 15 14 12 13 13 13 17 14 12 13 15 15 15 16 13 11 8 6 5
6 6 6 6 7 7 7 7 8 8 9 9 9 9 9 9 11 13 12 12 12 12 14 14 14 13 12 13 15 16 16 11 11 14 14 11 6 7
7 7 7 7 7 7 7 8 10 9 9 9 9 9 10 10 11 12 13 13 13 14 14 14 13 12 13 13 14 14 17 13 7 5 2 4 6 5
Wind_Direction
255 251 245 242 236 234 237 242 248 254 250 255 261 277 294 301 313 299 300 350 319 306 304 302 294 286 297 305 295 279 266 257 253 245 233 222 217 213
262 260 252 247 240 232 234 238 242 251 257 254 251 264 290 288 297 300 306 311 271 285 306 312 309 301 296 292 295 294 278 262 251 249 244 230 220 213
265 264 263 259 255 246 239 237 236 239 248 252 251 261 271 276 289 301 307 307 304 285 298 304 304 305 304 298 293 291 290 278 261 250 246 236 226 218
283 282 277 274 263 257 248 241 238 236 242 252 248 247 262 276 291 300 307 305 302 306 298 294 289 289 291 293 293 288 286 282 271 257 245 236 226 221
23 8 344 309 280 264 253 248 241 234 237 248 252 248 264 279 297 297 297 300 303 303 297 290 285 277 275 279 286 287 287 285 278 265 250 237 221 213
46 43 31 21 8 353 342 326 251 219 216 231 245 253 276 300 302 302 305 306 302 303 298 294 288 278 269 272 279 285 291 293 287 272 247 227 209 200
46 39 32 25 27 31 42 39 33 42 70 220 255 290 286 305 314 323 309 311 301 294 299 307 312 308 298 283 276 285 296 305 304 285 254 226 209 200
43 33 26 23 22 26 35 41 38 37 28 360 291 285 300 312 313 306 307 303 300 312 314 307 307 300 297 293 294 288 287 296 310 301 272 238 219 211
27 16 16 20 16 18 19 18 26 33 14 331 302 305 315 312 310 302 295 291 288 297 302 296 296 291 289 283 275 270 274 279 289 298 291 255 225 215
17 4 353 356 4 357 348 342 337 355 357 340 344 333 332 330 317 305 297 290 286 282 282 286 292 291 296 295 286 268 264 267 270 277 286 275 238 219
4 9 356 351 3 353 336 334 326 329 346 341 332 321 315 308 308 300 293 292 292 294 293 287 293 294 291 286 282 270 260 260 263 266 274 279 260 231
356 18 27 7 2 359 351 344 331 337 335 329 323 321 317 315 310 301 306 301 300 297 297 300 303 312 304 300 307 311 294 276 266 264 266 269 264 249
358 15 21 6 6 4 354 348 350 338 326 322 320 327 333 334 334 330 322 308 295 284 300 311 302 300 293 297 301 302 302 298 292 279 261 257 256 252
347 1 10 2 358 354 350 354 348 333 323 321 322 329 334 334 330 323 314 303 286 281 286 290 284 285 285 286 288 291 295 301 298 289 281 266 249 244
352 9 353 353 342 334 345 344 336 330 323 315 317 322 325 321 317 313 312 306 295 285 279 279 278 283 282 281 282 283 284 283 283 282 279 272 265 250
299 348 338 338 323 319 324 325 327 328 316 309 313 314 314 313 312 318 316 317 307 299 292 289 285 281 277 276 278 281 279 275 273 273 272 270 264 254
307 306 314 321 319 319 316 315 317 310 303 309 309 308 309 310 312 313 308 307 297 299 303 301 293 287 279 275 272 268 268 268 267 265 262 261 258 251
290 293 300 303 305 309 311 313 311 307 310 309 303 301 303 306 306 305 303 299 295 293 293 297 300 295 285 269 246 257 258 258 259 261 259 257 256 246
287 283 283 289 292 296 298 300 303 307 308 299 295 295 295 295 297 297 296 293 290 288 286 287 287 285 283 281 271 249 264 270 264 257 252 250 251 247
276 273 274 278 282 285 289 293 297 300 297 294 292 289 287 290 291 290 290 291 291 289 284 278 273 270 269 276 281 282 273 272 270 265 262 258 252 261
278 270 271 277 282 286 288 290 291 292 292 291 287 284 283 283 283 284 286 288 287 282 277 275 274 279 280 277 272 270 266 252 249 259 269 260 235 218
280 277 276 276 280 281 281 283 284 285 285 280 279 277 276 277 279 280 282 283 283 280 280 279 280 278 269 266 266 268 270 261 240 241 255 254 227 215
279 279 279 279 277 277 279 281 282 281 280 279 278 275 275 277 279 279 280 279 279 278 279 281 280 274 269 264 265 264 264 254 227 212 234 250 247 236